Chennai, India

3:44 AM IST on May 01, 2017 (GMT +0530)
Chennai International

Weather History for VOMM - October, 2013

Change the Weather History Date:

Friday, October 18, 2013

  Actual Average Record
Temperature  
Mean Temperature 84 °F -  
Max Temperature 91 °F 83 °F 95 °F (2016)
Min Temperature 78 °F 73 °F 71 °F (2005)
Cooling Degree Days 20    
Growing Degree Days 34 (Base 50)    
Moisture  
Dew Point 74 °F    
Average Humidity 73    
Maximum Humidity 94    
Minimum Humidity 50    
Precipitation  
Precipitation 0.00 in 0.52 in - ()
Sea Level Pressure  
Sea Level Pressure 29.80 in    
Wind  
Wind Speed 4 mph ()    
Max Wind Speed 14 mph    
Max Gust Speed -    
Visibility 3.5 miles    
Events Rain    
Averages and records for this station are not official NWS values.
T = Trace of Precipitation, MM = Missing Value Source: Averaged Metar Reports

Daily Weather History Graph

Daily Weather History Graph

Search for Another Location

Airport or City:

Trip Planner

Search our weather history database for the weather conditions in past years. The results will help you decide how hot, cold, wet, or windy it might be!

Date:

Astronomy

Oct. 18, 2013 Rise Set
Actual Time 5:59 AM IST 5:48 PM IST
Civil Twilight 5:38 AM IST 6:10 PM IST
Nautical Twilight 5:13 AM IST 6:35 PM IST
Astronomical Twilight 4:48 AM IST 6:59 PM IST
Moon 5:21 PM IST (10/18) 5:10 AM IST (10/18)
Length of Visible Light 12h 31m
Length of Day
11h 48m
Waxing Gibbous, 99% of the Moon is Illuminated
Oct 18
Waxing Gibbous
Oct 19
Full
Oct 27
Last Quarter
Nov 3
New
Nov 10
First Quarter

Hourly Weather History & Observations

Time (IST) Temp. Heat Index Dew Point Humidity Pressure Visibility Wind Dir Wind Speed Gust Speed Precip Events Conditions
12:10 AM 80.6 °F 86.2 °F 75.2 °F 84% 29.80 in 3.1 mi West 3.5 mph - N/A   Haze
12:40 AM 78.8 °F - 75.2 °F 89% 29.80 in 2.5 mi WNW 3.5 mph - N/A   Haze
1:10 AM 78.8 °F - 75.2 °F 89% 29.80 in 2.5 mi Calm Calm - N/A   Haze
1:40 AM 78.8 °F - 75.2 °F 89% 29.77 in 2.5 mi WNW 3.5 mph - N/A   Haze
2:10 AM 78.8 °F - 75.2 °F 89% 29.77 in 2.5 mi West 4.6 mph - N/A   Haze
2:30 AM 80 °F - 77 °F 87% 29.81 in 1 mi Calm Calm - - Rain Light Rain
2:40 AM 78.8 °F - 75.2 °F 89% 29.77 in 2.5 mi West 3.5 mph - N/A Rain Light Rain
3:10 AM 78.8 °F - 75.2 °F 89% 29.77 in 2.5 mi WNW 3.5 mph - N/A   Haze
3:40 AM 78.8 °F - 75.2 °F 89% 29.77 in 2.5 mi Calm Calm - N/A   Haze
4:10 AM 78.8 °F - 75.2 °F 89% 29.77 in 2.5 mi Calm Calm - N/A   Haze
4:40 AM 78.8 °F - 75.2 °F 89% 29.77 in 2.5 mi West 3.5 mph - N/A   Haze
5:10 AM 78.8 °F - 75.2 °F 89% 29.77 in 1.6 mi West 3.5 mph - N/A   Scattered Clouds
5:30 AM 79 °F - 77 °F 91% 29.82 in 1 mi Calm Calm - -   Haze
6:10 AM 78.8 °F - 75.2 °F 89% 29.80 in 1.9 mi Calm Calm - N/A   Haze
6:40 AM 78.8 °F - 75.2 °F 89% 29.83 in 1.9 mi Calm Calm - N/A   Haze
7:10 AM 78.8 °F - 77.0 °F 94% 29.83 in 1.9 mi Calm Calm - N/A   Haze
7:40 AM 80.6 °F 87.1 °F 77.0 °F 89% 29.83 in 1.9 mi NNW 2.3 mph - N/A   Haze
8:40 AM 84.2 °F 94.1 °F 77.0 °F 79% 29.83 in 1.9 mi NE 6.9 mph - N/A   Haze
9:10 AM 84.2 °F 92.3 °F 75.2 °F 74% 29.86 in 3.1 mi East 5.8 mph - N/A   Haze
9:40 AM 87.8 °F 95.6 °F 73.4 °F 62% 29.86 in 3.7 mi ENE 8.1 mph - N/A   Scattered Clouds
10:10 AM 87.8 °F 93.8 °F 71.6 °F 58% 29.86 in 3.7 mi NE 6.9 mph - N/A   Scattered Clouds
10:40 AM 87.8 °F 93.8 °F 71.6 °F 58% 29.83 in 4.3 mi NNE 6.9 mph - N/A   Scattered Clouds
11:10 AM 87.8 °F 92.6 °F 69.8 °F 55% 29.83 in 4.3 mi ENE 9.2 mph - N/A   Scattered Clouds
11:30 AM 90 °F - 74 °F 50% 29.84 in 6 mi East 5.8 mph - -   Partly Cloudy
11:40 AM 89.6 °F 98.2 °F 73.4 °F 59% 29.80 in 5.0 mi East 8.1 mph - N/A   Scattered Clouds
12:10 PM 89.6 °F 94.7 °F 69.8 °F 52% 29.80 in 5.0 mi ENE 6.9 mph - N/A   Scattered Clouds
12:40 PM 89.6 °F 96.2 °F 71.6 °F 55% 29.77 in 5.0 mi East 9.2 mph - N/A   Scattered Clouds
1:10 PM 89.6 °F 96.2 °F 71.6 °F 55% 29.77 in 5.0 mi East 9.2 mph - N/A   Scattered Clouds
1:40 PM 89.6 °F 96.2 °F 71.6 °F 55% 29.77 in 5.0 mi East 8.1 mph - N/A   Partly Cloudy
2:10 PM 89.6 °F 96.2 °F 71.6 °F 55% 29.74 in 5.0 mi East 13.8 mph - N/A   Partly Cloudy
2:30 PM 90 °F - 74 °F 51% 29.78 in 6 mi ESE 6.9 mph - -   Partly Cloudy
2:40 PM 89.6 °F 96.2 °F 71.6 °F 55% 29.74 in 5.0 mi East 11.5 mph - N/A   Partly Cloudy
3:10 PM 89.6 °F 96.2 °F 71.6 °F 55% 29.74 in 5.0 mi ENE 11.5 mph - N/A   Partly Cloudy
3:40 PM 87.8 °F 95.6 °F 73.4 °F 62% 29.74 in 5.0 mi East 11.5 mph - N/A   Partly Cloudy
4:10 PM 86.0 °F 93.4 °F 73.4 °F 66% 29.74 in 5.0 mi ENE 11.5 mph - N/A   Partly Cloudy
4:40 PM 86.0 °F 91.8 °F 71.6 °F 62% 29.74 in 5.0 mi NE 11.5 mph - N/A   Partly Cloudy
5:10 PM 84.2 °F 89.6 °F 71.6 °F 66% 29.77 in 4.3 mi ENE 11.5 mph - N/A   Partly Cloudy
5:30 PM 86 °F - 75 °F 64% 29.81 in 6 mi ESE 5.8 mph - -   Scattered Clouds
5:40 PM 84.2 °F 89.6 °F 71.6 °F 66% 29.77 in 3.7 mi ENE 9.2 mph - N/A   Partly Cloudy
6:10 PM 84.2 °F 90.9 °F 73.4 °F 70% 29.77 in 3.7 mi East 11.5 mph - N/A   Partly Cloudy
6:40 PM 82.4 °F 88.2 °F 73.4 °F 74% 29.80 in 3.7 mi ENE 9.2 mph - N/A   Partly Cloudy
7:10 PM 82.4 °F 88.2 °F 73.4 °F 74% 29.80 in 3.7 mi East 8.1 mph - N/A   Partly Cloudy
7:40 PM 82.4 °F 88.2 °F 73.4 °F 74% 29.83 in 3.7 mi East 5.8 mph - N/A   Partly Cloudy
8:10 PM 80.6 °F 85.4 °F 73.4 °F 79% 29.83 in 3.7 mi ENE 5.8 mph - N/A   Partly Cloudy
8:30 PM 83 °F - 75 °F 71% 29.86 in 2 mi ENE 2.3 mph - -   Scattered Clouds
8:40 PM 80.6 °F 85.4 °F 73.4 °F 79% 29.86 in 3.7 mi East 5.8 mph - N/A   Partly Cloudy
9:10 PM 82.4 °F 89.5 °F 75.2 °F 79% 29.86 in 3.7 mi ENE 6.9 mph - N/A   Partly Cloudy
9:40 PM 80.6 °F 85.4 °F 73.4 °F 79% 29.83 in 3.7 mi East 6.9 mph - N/A   Scattered Clouds
10:10 PM 80.6 °F 85.4 °F 73.4 °F 79% 29.83 in 3.7 mi East 5.8 mph - N/A   Scattered Clouds
10:40 PM 80.6 °F 85.4 °F 73.4 °F 79% 29.83 in 3.7 mi ENE 5.8 mph - N/A   Scattered Clouds
11:10 PM 82.4 °F 88.2 °F 73.4 °F 74% 29.83 in 3.7 mi East 4.6 mph - N/A   Scattered Clouds
11:30 PM 82 °F - 76 °F 77% 29.86 in 2 mi Calm Calm - -   Scattered Clouds
11:40 PM 82.4 °F 88.2 °F 73.4 °F 74% 29.83 in 3.7 mi East 3.5 mph - N/A   Scattered Clouds